パンスターズ彗星

C/2024 W1 ( PanSTARRS )

English version
Home page
Updated on March 23, 2025

---------------------------------------------------------------------

・ プロフィール

発見日 2024年11月22日
発見光度 20.7等
発見者 Pan-STARRS 1 telescope (Haleakala)

・ 軌道要素

Epoch 2025 May 5.0 TT = JDT 2460800.5
T 2025 Mar. 19.09991 TT                                 Pike
q   2.5607135            (2000.0)            P               Q
z  +0.0222921      Peri.  256.73747     -0.23701515     +0.61447912
 +/-0.0000000      Node   310.72770     +0.47496708     -0.60238778
e   0.9429162      Incl.   83.20036     -0.84748457     -0.50945497
From 27 observations 2024 Nov. 22-2025 Feb. 3, mean residual 0".4.

・ 光度変化

        m1 = 12.0 + 5 logΔ + 10.0 log r

---------------------------------------------------------------------

軌道要素はM.P.E.C. 2025-C143に掲載されたものです。
光度グラフはComet for Windowsで作成したものです。

---------------------------------------------------------------------

Copyright(C) Seiichi Yoshida (comet@aerith.net). All rights reserved.